Погода в Аксы-Барлыке

Россия / Республика Тыва     51°07′12″N   90°24′07″E
темп.,
°C
ветер,
м/с
пор.,
м/с
влажн.,
%
обл.,
%
осадки,
мм/ч
давл.,
гПа
погр.,
м
12 мая, ср
ср1201:00+9сз114698 0.0 101114
04:00+8юз1159100 0.0 101119
07:00+9в0158100 0.0 1012474
10:00+9ссв1257100 0.1 10121189
13:00+11ссз224593 0.1 10101654
16:00+13сз2241100 0.0 10091595
19:00+12зюз2244100 0.1 1009677
22:00+8юз3469100 0.1 1011287
13 мая, чт
чт1301:00+9зюз2267100 0.5 1011107
04:00+7ююз4479100 1.0 1012263
07:00+8зюз3465100 1.0 1013366
10:00+11сз2340100 0.1 10131818
13:00+13з3428100 0.1 10112476
16:00+16з3423100 0.0 10092916
19:00+14зюз5530100 0.0 10091000
22:00+10юз334690 0.0 101253
14 мая, пт
пт1401:00+8ююз22482 0.0 101223
04:00+6ю22505 0.0 101314
07:00+8ююз114434 0.0 1013125
10:00+12ссз113389 0.0 1011840
13:00+16сз332444 0.0 10091738
16:00+18з34196 0.0 10062845
19:00+12св6847100 0.4 1011991
22:00+10св5650100 1.4 10171261
15 мая, сб
сб1501:00+7ююв336234 1.9 1020261
04:00+5ю117099 0.0 102210
07:00+7ссв1061100 0.0 1023188
10:00+9сз124190 0.0 10231206
13:00+13зсз133198 0.0 10221613
16:00+16ююз14275 0.0 10202073
19:00+17сз132859 0.0 10202349
22:00+12юв22427 0.0 102212
16 мая, вс
вс1601:00+10ю21485 0.0 102214
04:00+8ю11535 0.0 102213
07:00+10ю11485 0.0 1022124
10:00+14зсз12375 0.0 1020752
13:00+19сз33278 0.0 10171366
16:00+21ссз23235 0.0 10142148
19:00+20ссв4328100 0.0 10131264
22:00+16ююв224031 0.0 101312